{"data":{"norad_id":56558,"epoch":"2026-09-20T13:16:52.483008Z","epoch_age_seconds":110217,"freshness":"FRESH","line1":"1 56558U 23065BH  26263.55338522  .00000002  00000+0  96097-5 0  9994","line2":"2 56558  43.0023 206.5228 0001043 266.7646  93.3087 15.27576870186231","mean_motion":15.2757687,"eccentricity":0.0001043,"inclination_deg":43.0023,"raan_deg":206.5228,"arg_perigee_deg":266.7646,"mean_anomaly_deg":93.3087,"bstar":9.6097e-6,"rev_number":18623,"period_min":94.266941865911,"perigee_km":482.34284571431,"apogee_km":483.77409108902,"semimajor_km":6861.1954684017,"source":"CELESTRAK","updated_at":"2026-09-21T09:00:33.480472Z"}}